{"data":{"norad_id":57525,"intl_designator":"2023-115E","name":"STARLINK-30253","alt_names":[],"object_type":"PAYLOAD","status":"ACTIVE","operator":null,"country":"US","launch_date":"2023-08-08","launch_site_code":"AFWTR","launch_vehicle":null,"mission":null,"orbit_class":"UNKNOWN","rcs_meters":null,"size_class":null,"mass_kg":null,"dimensions":null,"purposes":["comms"],"wikipedia_slug":null,"has_3d_model":false,"image_url":null,"decayed_at":null,"tle_current":{"epoch":"2026-09-20T12:02:55.349664Z","epoch_age_seconds":127509,"freshness":"FRESH","line1":"1 57525U 23115E   26263.50202951  .00000640  00000+0  32766-4 0  9996","line2":"2 57525  43.0038 341.5482 0000955 265.9786  94.0956 15.27578413172144","mean_motion":15.27578413,"eccentricity":9.55e-5,"inclination_deg":43.0038,"raan_deg":341.5482,"arg_perigee_deg":265.9786,"mean_anomaly_deg":94.0956,"bstar":3.2766e-5,"rev_number":17214,"period_min":94.266846647302,"perigee_km":482.39860436669,"apogee_km":483.70909181868,"semimajor_km":6861.1908480927,"source":"CELESTRAK","updated_at":"2026-09-21T09:00:33.637459Z"}}}